Weather History for Florence, Italy

Change the Weather History Date:

Sunday, March 10, 2013

  Actual Average Record
Temperature  
Mean Temperature 55 °F -  
Max Temperature 60 °F 61 °F 62 °F (2003)
Min Temperature 50 °F 43 °F 28 °F (2011)
Degree Days  
Heating Degree Days 10    
Growing Degree Days 5 (Base 50)    
Moisture  
Dew Point 50 °F    
Average Humidity 88    
Maximum Humidity 100    
Minimum Humidity 77    
Precipitation  
Precipitation 0.00 in 0.10 in - ()
Sea Level Pressure  
Sea Level Pressure 29.57 in    
Wind  
Wind Speed 5 mph ()    
Max Wind Speed 8 mph    
Max Gust Speed -    
Visibility 6.1 miles    
Events Rain , Thunderstorm    
Averages and records for this station are not official NWS values.
T = Trace of Precipitation, MM = Missing Value Source: Averaged Metar Reports

Daily Weather History Graph

Daily Weather History Graph

Search for Another Location

Airport:

Trip Planner

Search our weather history database for the weather conditions in past years. The results will help you decide how hot, cold, wet, or windy it might be!

Date:

Astronomy

Mar. 10, 2013 Rise Set
Actual Time 6:36 AM CET 6:15 PM CET
Civil Twilight 6:07 AM CET 6:43 PM CET
Nautical Twilight 5:34 AM CET 7:17 PM CET
Astronomical Twilight 5:00 AM CET 7:50 PM CET
Moon 5:28 AM CET (3/10) 5:03 PM CET (3/10)
Length of Visible Light 12h 36m
Length of Day
11h 38m
Waning Crescent, 2% of the Moon is Illuminated
Mar 10
Waning Crescent
Mar 11
New
Mar 19
First Quarter
Mar 27
Full
Apr 3
Last Quarter

Hourly Weather History & Observations

Time (CET) Temp. Dew Point Humidity Pressure Visibility Wind Dir Wind Speed Gust Speed Precip Events Conditions
12:20 AM 53.6 °F 50.0 °F 88% 29.62 in 6.2 mi South 8.1 mph - N/A   Mostly Cloudy
12:50 AM 53.6 °F 50.0 °F 88% 29.62 in 6.2 mi SSW 5.8 mph - N/A   Mostly Cloudy
1:20 AM 53.6 °F 50.0 °F 88% 29.62 in 6.2 mi SW 6.9 mph - N/A   Mostly Cloudy
1:50 AM 53.6 °F 50.0 °F 88% 29.62 in 6.2 mi SSW 4.6 mph - N/A   Mostly Cloudy
2:20 AM 53.6 °F 50.0 °F 88% 29.62 in 6.2 mi SW 4.6 mph - N/A   Mostly Cloudy
2:50 AM 51.8 °F 50.0 °F 94% 29.62 in 6.2 mi Variable 2.3 mph - N/A   Mostly Cloudy
3:20 AM 51.8 °F 50.0 °F 94% 29.62 in 6.2 mi Variable 2.3 mph - N/A   Drizzle
3:50 AM 51.8 °F 50.0 °F 94% 29.59 in 3.1 mi Variable 2.3 mph - N/A Rain Heavy Rain
4:20 AM 51.8 °F 51.8 °F 100% 29.59 in 6.2 mi SSW 5.8 mph - N/A Rain Light Rain
4:50 AM 53.6 °F 50.0 °F 88% 29.62 in 6.2 mi SSW 8.1 mph - N/A   Mostly Cloudy
5:20 AM 53.6 °F 50.0 °F 88% 29.62 in 6.2 mi SW 6.9 mph - N/A   Mostly Cloudy
5:50 AM 51.8 °F 50.0 °F 94% 29.62 in 6.2 mi SSW 5.8 mph - N/A   Mostly Cloudy
6:20 AM 53.6 °F 50.0 °F 88% 29.62 in 6.2 mi SW 5.8 mph - N/A   Mostly Cloudy
6:50 AM 53.6 °F 50.0 °F 88% 29.62 in 6.2 mi SE 3.5 mph - N/A   Mostly Cloudy
7:20 AM 53.6 °F 48.2 °F 82% 29.62 in 6.2 mi Variable 2.3 mph - N/A   Mostly Cloudy
7:50 AM 53.6 °F 50.0 °F 88% 29.62 in 6.2 mi East 3.5 mph - N/A   Mostly Cloudy
8:20 AM 53.6 °F 50.0 °F 88% 29.62 in 5.0 mi SE 3.5 mph - N/A Rain Light Rain
8:50 AM 53.6 °F 51.8 °F 94% 29.62 in 6.2 mi Variable 2.3 mph - N/A   Scattered Clouds
9:20 AM 53.6 °F 51.8 °F 94% 29.59 in 6.2 mi NNE 4.6 mph - N/A   Scattered Clouds
9:50 AM 53.6 °F 51.8 °F 94% 29.62 in 6.2 mi WNW 4.6 mph - N/A   Scattered Clouds
10:20 AM 55.4 °F 51.8 °F 88% 29.59 in 6.2 mi Variable 2.3 mph - N/A   Scattered Clouds
10:50 AM 55.4 °F 51.8 °F 88% 29.59 in 6.2 mi NNW 4.6 mph - N/A   Scattered Clouds
11:20 AM 57.2 °F 51.8 °F 82% 29.59 in 6.2 mi NNW 4.6 mph - N/A   Scattered Clouds
11:50 AM 60.8 °F 53.6 °F 77% 29.56 in 6.2 mi NW 3.5 mph - N/A   Scattered Clouds
12:20 PM 59.0 °F 51.8 °F 77% 29.56 in 6.2 mi SW 8.1 mph - N/A   Scattered Clouds
12:50 PM 59.0 °F 51.8 °F 77% 29.56 in 6.2 mi NW 6.9 mph - N/A   Scattered Clouds
1:20 PM 57.2 °F 53.6 °F 88% 29.53 in 6.2 mi NW 4.6 mph - N/A   Scattered Clouds
1:50 PM 59.0 °F 51.8 °F 77% 29.53 in 6.2 mi NW 3.5 mph - N/A Rain Light Rain
2:20 PM 55.4 °F 48.2 °F 77% 29.53 in 6.2 mi WSW 8.1 mph - N/A Rain , Thunderstorm Thunderstorms and Rain
2:50 PM 57.2 °F 50.0 °F 77% 29.53 in 6.2 mi ESE 4.6 mph - N/A   Scattered Clouds
3:20 PM 57.2 °F 50.0 °F 77% 29.50 in 6.2 mi NNE 3.5 mph - N/A Thunderstorm Scattered Clouds
3:50 PM 57.2 °F 50.0 °F 77% 29.50 in 6.2 mi East 6.9 mph - N/A   Mostly Cloudy
4:20 PM 55.4 °F 50.0 °F 82% 29.50 in 6.2 mi East 5.8 mph - N/A   Mostly Cloudy
4:50 PM 53.6 °F 48.2 °F 82% 29.50 in 6.2 mi SE 5.8 mph - N/A Rain Rain
5:20 PM 51.8 °F 50.0 °F 94% 29.50 in 6.2 mi ESE 5.8 mph - N/A Rain Light Rain
5:50 PM 51.8 °F 50.0 °F 94% 29.50 in 5.6 mi ENE 5.8 mph - N/A Rain Rain
6:20 PM 51.8 °F 50.0 °F 94% 29.50 in 6.2 mi East 8.1 mph - N/A Rain Rain
6:50 PM 51.8 °F 50.0 °F 94% 29.50 in 6.2 mi ENE 6.9 mph - N/A   Mostly Cloudy
7:20 PM 51.8 °F 50.0 °F 94% 29.53 in 6.2 mi Variable 2.3 mph - N/A   Scattered Clouds
7:50 PM 51.8 °F 50.0 °F 94% 29.53 in 6.2 mi SSE 6.9 mph - N/A   Mostly Cloudy
8:20 PM 51.8 °F 50.0 °F 94% 29.53 in 6.2 mi ESE 8.1 mph - N/A Rain Rain
8:50 PM 51.8 °F 48.2 °F 88% 29.56 in 6.2 mi East 6.9 mph - N/A   Light Drizzle
9:20 PM 51.8 °F 48.2 °F 88% 29.56 in 6.2 mi ESE 5.8 mph - N/A   Light Drizzle
9:50 PM 51.8 °F 48.2 °F 88% 29.56 in 6.2 mi ESE 4.6 mph - N/A Rain Light Rain
10:20 PM 50.0 °F 48.2 °F 94% 29.56 in 6.2 mi East 5.8 mph - N/A Rain Light Rain
10:50 PM 50.0 °F 48.2 °F 94% 29.56 in 6.2 mi East 6.9 mph - N/A   Light Drizzle
11:20 PM 50.0 °F 48.2 °F 94% 29.56 in 6.2 mi East 4.6 mph - N/A   Mostly Cloudy
11:50 PM 50.0 °F 48.2 °F 94% 29.56 in 6.2 mi ESE 2.3 mph - N/A   Drizzle